Location: Newark
(35.5300°N, 14.3000°E)
Time: 22:44:36
(UTC+00:00)

Transit 4A - Pass Details

Date: 28 November 2019
Orbit: 871 x 973 km, 66.8° (Epoch: 21 January)

Event Time Altitude Azimuth Distance (km) Brightness Sun altitude
Exits shadow 03:17:27 23° 12° (NNE) 1,766 9.4 -30.7°
Maximum altitude 03:20:00 33° 55° (NE) 1,432 9.2 -30.2°
Drops below altitude 10° 03:25:11 10° 118° (ESE) 2,512 11.0 -29.1°
Sets 03:27:54 0° 128° (SE) 3,449 11.7 -28.6°
